Location: Alston School (historical)
(35.5076°N, 89.8251°W)
Time: 22:37:01
(UTC+00:00)

Cosmos 836 Rocket - Pass Details

Date: 09 December 2025
Orbit: 752 x 774 km, 74.1° (Epoch: 16 January)

Event Time Altitude Azimuth Distance (km) Brightness Sun altitude
Rises 23:06:58 0° 344° (NNW) 3,235 7.6 -4.6°
Reaches altitude 10° 23:09:21 10° 346° (NNW) 2,309 6.9 -5.0°
Maximum altitude 23:14:36 77° 72° (ENE) 792 4.5 -6.0°
Drops below altitude 10° 23:19:50 10° 159° (SSE) 2,307 7.0 -7.0°
Sets 23:22:13 0° 160° (SSE) 3,232 7.8 -7.4°
